Regional Weather Roundup
Issued by NWS San Angelo, TX

Home | Current Version | Previous Version | Text Only | Print | Product List | Glossary Off
Versions: 1 2 3 4 5 6 7 8 9 10 11 12 13 14 15 16 17 18 19 20 21 22 23 24 25 26 27 28 29 30 31 32 33 34 35 36 37 38 39 40 41 42 43 44 45 46 47 48 49 50

000
ASUS44 KSJT 011910
RWRSJT
WEST CENTRAL TEXAS REGIONAL WEATHER ROUNDUP
NATIONAL WEATHER SERVICE SAN ANGELO TX
200 PM CDT WED JUL 01 2015

NOTE: "FAIR" INDICATES FEW OR NO CLOUDS BELOW 12,000 FEET WITH NO
SIGNIFICANT WEATHER AND/OR OBSTRUCTIONS TO VISIBILITY.

TXZ049-054-064>066-071>073-076>078-098-099-113-114-127-128-139-140-
154-155-168>170-012000
...LOCATIONS ACROSS WEST CENTRAL TEXAS...

CITY           SKY/WX    TMP DP  RH WIND       PRES   REMARKS
SAN ANGELO     MOSUNNY   86  66  51 S15G21    30.04F
ABILENE        MOSUNNY   87  67  51 SW16G24   30.03F
DYESS AFB      CLOUDY    86  69  55 S16       30.01F
JUNCTION       PTSUNNY   85  65  51 S10G21    30.06F
SWEETWATER     MOSUNNY   84  66  54 S13G20    30.07F
BROWNWOOD      MOSUNNY   90  64  43 S10G17    30.03F
COLEMAN        PTCLDY    88  68  51 S13G20    30.04F
SONORA         MOSUNNY   84  64  51 S15       30.11F
OZONA          FAIR      82  63  51 S16G24    30.09F
BRADY          MOSUNNY   88  63  42 N17       30.05F
$$

TEXAS PANHANDLE/OKLAHOMA PANHANDLE

CITY           SKY/WX    TMP DP  RH WIND       PRES   REMARKS
AMARILLO       SUNNY     91  58  32 SW12      30.01F
BORGER         SUNNY     95  58  28 W12       29.96S
CANADIAN       MOSUNNY   96  64  35 SW9       29.90F
DALHART        PTSUNNY   95  51  22 NE7       30.02F
DUMAS          PTCLDY    95  54  24 SW12      29.99F
GUYMON         NOT AVBL
HEREFORD       PTCLDY    93  55  27 MISG      30.03F
PAMPA          CLEAR     93  57  30 W9        29.98F
PERRYTON       MOSUNNY   98  54  23 SW8       29.92S
$$

SOUTHERN PANHANDLE/SOUTH PLAINS/ROLLING PLAINS

CITY           SKY/WX    TMP DP  RH WIND       PRES   REMARKS
LUBBOCK        MOSUNNY   89  59  36 S13       30.03F
SNYDER         MOSUNNY   83  69  62 S10G16    30.05F
CHILDRESS      SUNNY     95  63  34 SW16G22   29.95F
SEMINOLE       CLEAR     89  57  33 S13       30.06F
$$

PERMIAN BASIN

CITY           SKY/WX    TMP DP  RH WIND       PRES   REMARKS
MIDLAND        MOSUNNY   84  66  54 S16G22    30.05F
ODESSA         MOSUNNY   84  65  52 S16       30.06F
WINK           SUNNY     89  63  41 SE12G18   30.01F
$$

FAR WEST/SOUTHWEST MOUNTAINS/TRANS PECOS

CITY           SKY/WX    TMP DP  RH WIND       PRES   REMARKS
ALPINE         PTCLDY    87  55  34 N5        30.17F
DRYDEN           N/A     88  66  48 S9G20     30.03F
EL PASO        MOSUNNY   91  51  25 VRB6      30.06F
FORT STOCKTON  MOSUNNY   91  65  41 MISG      30.03F
GUADALUPE PASS SUNNY     82  52  35 SW6       30.19F
MARFA          PTSUNNY   82  54  36 E5        30.17S
PECOS          CLEAR     91  57  32 N6        30.00F
$$

DALLAS/FORT WORTH METROPLEX

CITY           SKY/WX    TMP DP  RH WIND       PRES   REMARKS
DFW AIRPORT    PTSUNNY   90  69  50 SW17G24   29.99F
FTW MEACHAM    MOSUNNY   91  72  53 SW16G23   29.99F
DAL-EXECUTIVE  PTSUNNY   89  70  53 MISG      30.00F
GRAND PRAIRIE  SUNNY     90  70  51 S14G20    30.01F
ADDISON        MOSUNNY   88  68  51 S15G21    30.00F
MESQUITE       PTCLDY    90  70  51 SW13      30.01F
LANCASTER      NOT AVBL
$$

NORTH CENTRAL TEXAS

CITY           SKY/WX    TMP DP  RH WIND       PRES   REMARKS
SHRMAN/DENISON PTCLDY    90  73  56 SW15      29.99F
GAINESVILLE    SUNNY     89  70  53 S14       29.99F
BRIDGEPORT     PTCLDY    89  72  55 S14       30.00F
DENTON         MOSUNNY   90  71  53 S15       29.99F
WAXAHACHIE     MOCLDY    89  72  56 S15G24    30.02F
GRANBURY       MOCLDY    92  68  45 S10       30.01F
$$

WESTERN NORTH TEXAS

CITY           SKY/WX    TMP DP  RH WIND       PRES   REMARKS
WICHITA FALLS  MOSUNNY   92  69  47 SW16G24   29.94F
VERNON         CLEAR     97  57  26 SW15      29.94F
BRECKENRIDGE   MOCLDY    91  65  42 SW9G18    30.00F
COMANCHE       MOSUNNY   88  68  50 S16       30.04S
$$

CENTRAL AND SOUTH CENTRAL TEXAS

CITY           SKY/WX    TMP DP  RH WIND       PRES   REMARKS
AUSTIN/BERGSTM PTSUNNY   87  73  62 S14G20    30.03F
WACO           PTSUNNY   89  71  55 S14       30.03F
HILLSBORO      PTCLDY    89  68  50 S12G24    30.02F
TEMPLE         MOSUNNY   88  72  58 S15       30.03F
KILLEEN-GRAY   MOSUNNY   87  70  56 S13       30.03F
FORT HOOD      MOSUNNY   89  71  53 S9        30.03F
GEORGETOWN     MOSUNNY   90  70  51 S14G20    30.02F
LAGO VISTA     MOCLDY    89  69  52 S8        30.07S
SAN MARCOS     MOSUNNY   88  70  55 S10       30.05
NEW BRAUNFELS  MOSUNNY   87  73  62 S13       30.03F
RANDOLPH AFB   HVY RAIN  79  73  79 S22G32    30.07S VSB 1
SAN ANTONIO    HVY RAIN  77  70  79 S28G49    30.08R
STINSON        RAIN      74  72  93 S14G26    30.07R FOG
PLEASANTON     NOT AVBL
LA GRANGE      PTSUNNY   85  73  67 S5        30.02F
GIDDINGS       MOCLDY    78  71  79 CALM      30.09F
$$

EAST TEXAS

CITY           SKY/WX    TMP DP  RH WIND       PRES   REMARKS
PARIS          MOSUNNY   91  66  43 SW14G22   29.99F
CLARKSVILLE    NOT AVBL
TYLER          MOSUNNY   90  72  55 S13G23    30.03F
LONGVIEW       PTSUNNY   93  74  53 SW14      30.03F
PALESTINE      PTCLDY    90  72  55 S12       30.06S
NACOGDOCHES    PTSUNNY   90  73  58 S8        30.05F
$$

TEXAS HILL COUNTRY AND EDWARDS PLATEAU

CITY           SKY/WX    TMP DP  RH WIND       PRES   REMARKS
LLANO          CLEAR     91  66  43 S12G17    30.07F
HORSESHOE BAY  FAIR      91  68  47 S8G17     30.05F
KERRVILLE      MOSUNNY   84  70  62 S13       30.08F
FREDERICKSBRG  PTSUNNY   85  67  54 S14       30.07F
ROCKSPRINGS    PTCLDY    82  68  61 S14G20    30.12S
HONDO          PTSUNNY   86  72  62 SE16      30.06F
UVALDE         PTCLDY    84  73  69 S8        30.04F
DEL RIO        MOSUNNY   87  70  56 SE20      30.00F
$$

SOUTHEAST TEXAS

CITY           SKY/WX    TMP DP  RH WIND       PRES   REMARKS
COLLEGE STN    PTSUNNY   80  71  74 S13       30.05F
CALDWELL       MOCLDY    75  75 100 E6        30.09R FOG
CROCKETT       PTCLDY    90  77  66 S9        30.08F
BRENHAM        PTSUNNY   83  73  69 S5        30.05F
HUNTSVILLE     LGT RAIN  77  73  87 S12G23    30.07S
CONROE         LGT RAIN  79  71  76 S9        30.07F
HOUSTON BUSH   CLOUDY    77  74  90 SE8       30.06F
HOUSTON HOBBY  CLOUDY    76  74  93 CALM      30.06F
PERLAND        CLOUDY    79  74  84 NE5       30.08S
WHARTON        TSTM      72  69  90 CALM      30.06S
$$

THE UPPER TEXAS COAST

CITY           SKY/WX    TMP DP  RH WIND       PRES   REMARKS
ORANGE         CLOUDY    86  80  84 S8        30.07F
PORT ARTHUR    PTSUNNY   90  79  70 S13       30.05F
GALVESTON      MOSUNNY   89  81  77 S12       30.07S
ANGLETON       PTSUNNY   87  78  74 S13       30.05F
BAY CITY       CLOUDY    87  79  78 SE13      30.03F
$$

TEXAS COASTAL BEND, RIO GRANDE PLAINS DEEP SOUTH TEXAS

CITY           SKY/WX    TMP DP  RH WIND       PRES   REMARKS
VICTORIA       TSTM      73  72  96 SW15      30.05F
BEEVILLE       LGT RAIN  76  74  94 S14G24    30.06F
ROCKPORT       CLOUDY    76  72  87 SW9       30.05F
PORT ARANSAS   CLOUDY   N/A N/A N/A SW18G28   30.05F
PORT LAVACA    CLOUDY    76  73  91 SW14G24   30.06F
CORPUS CHRISTI CLOUDY    76  72  87 S10       30.05F
KINGSVILLE NAS CLOUDY    76  75  97 SE3       30.05F
COTULLA        LGT RAIN  78  71  79 S12G24    30.04F
LAREDO         CLOUDY    82  69  64 SE16      30.05S
BROWNSVILLE    CLOUDY    81  72  74 SW22G28   30.01F
PORT ISABEL    NOT AVBL
HEBBRONVILLE     N/A     79  69  72 S18G29    30.05F
MCALLEN        LGT RAIN  79  70  74 S15G22    30.05F
WESLACO        LGT RAIN  78  74  85 S9        30.03F
FALFURRIAS     CLOUDY    77  72  85 SE8       30.05S
EDINBURG       CLOUDY    84  70  64 S15       30.04F
$$


USA.gov is the U.S. government's official web portal to all federal, state and local government web resources and services.